Weather History for Fremont, NE

Change the Weather History Date:

Friday, June 14, 2013

  Actual Average Record
Temperature  
Mean Temperature 76 °F -  
Max Temperature 90 °F 84 °F 101 °F (1979)
Min Temperature 62 °F 61 °F 46 °F (1969)
Cooling Degree Days 11    
Growing Degree Days 26 (Base 50)    
Moisture  
Dew Point 66 °F    
Average Humidity 75    
Maximum Humidity 96    
Minimum Humidity 56    
Precipitation  
Precipitation 0.43 in - - ()
Sea Level Pressure  
Sea Level Pressure 29.90 in    
Wind  
Wind Speed 9 mph (SE)    
Max Wind Speed 24 mph    
Max Gust Speed 33 mph    
Visibility 10 miles    
Events Rain , Thunderstorm    
Averages and records for this station are not official NWS values.
T = Trace of Precipitation, MM = Missing Value Source: NWS Daily Summary

Daily Weather History Graph

Daily Weather History Graph

Search for Another Location

Airport:

Trip Planner

Search our weather history database for the weather conditions in past years. The results will help you decide how hot, cold, wet, or windy it might be!

Date:

Astronomy

Jun. 14, 2013 Rise Set
Actual Time 5:51 AM CDT 9:01 PM CDT
Civil Twilight 5:17 AM CDT 9:35 PM CDT
Nautical Twilight 4:34 AM CDT 10:18 PM CDT
Astronomical Twilight 3:42 AM CDT 11:10 PM CDT
Moon 11:31 AM CDT (6/14) 12:04 AM CDT (6/14)
Length of Visible Light 16h 17m
Length of Day
15h 09m
Waxing Crescent, 30% of the Moon is Illuminated
Jun 14
Waxing Crescent
Jun 16
First Quarter
Jun 23
Full
Jun 29
Last Quarter
Jul 8
New

Hourly Weather History & Observations

Time (CDT) Temp. Heat Index Dew Point Humidity Pressure Visibility Wind Dir Wind Speed Gust Speed Precip Events Conditions
12:15 AM 65.3 °F - 59.2 °F 81% 30.04 in 10.0 mi NE 3.5 mph - N/A   Clear
12:35 AM 64.6 °F - 59.0 °F 82% 30.04 in 10.0 mi Calm Calm - N/A   Clear
12:55 AM 64.4 °F - 59.4 °F 84% 30.03 in 10.0 mi Calm Calm - N/A   Clear
1:15 AM 63.9 °F - 59.2 °F 85% 30.03 in 10.0 mi Calm Calm - N/A   Clear
1:35 AM 62.4 °F - 59.4 °F 90% 30.04 in 10.0 mi Calm Calm - N/A   Scattered Clouds
1:55 AM 64.2 °F - 60.1 °F 86% 30.04 in 10.0 mi Calm Calm - N/A   Scattered Clouds
2:15 AM 64.8 °F - 60.6 °F 86% 30.03 in 10.0 mi Calm Calm - N/A   Mostly Cloudy
2:35 AM 65.3 °F - 60.8 °F 85% 30.03 in 10.0 mi Calm Calm - N/A   Mostly Cloudy
2:55 AM 65.7 °F - 59.2 °F 80% 30.01 in 10.0 mi East 4.6 mph - N/A   Scattered Clouds
3:15 AM 65.3 °F - 59.5 °F 82% 30.00 in 10.0 mi ESE 5.8 mph - N/A   Clear
3:35 AM 64.9 °F - 59.5 °F 83% 29.99 in 10.0 mi ESE 5.8 mph - N/A   Clear
3:55 AM 65.5 °F - 59.9 °F 82% 29.99 in 10.0 mi ESE 4.6 mph - N/A   Scattered Clouds
4:15 AM 65.3 °F - 59.5 °F 82% 29.97 in 10.0 mi ESE 6.9 mph - N/A   Clear
4:35 AM 65.5 °F - 59.4 °F 81% 29.96 in 10.0 mi SE 9.2 mph - N/A   Clear
4:55 AM 65.3 °F - 59.4 °F 81% 29.97 in 10.0 mi ESE 10.4 mph - N/A   Clear
5:15 AM 66.2 °F - 59.0 °F 78% 29.96 in 10.0 mi ESE 10.4 mph - N/A   Clear
5:35 AM 66.4 °F - 59.0 °F 77% 29.96 in 10.0 mi SE 8.1 mph - N/A   Clear
5:55 AM 66.7 °F - 59.4 °F 77% 29.97 in 10.0 mi East 6.9 mph - N/A   Scattered Clouds
6:15 AM 67.1 °F - 59.5 °F 77% 29.96 in 10.0 mi SE 6.9 mph - N/A   Clear
6:35 AM 68.2 °F - 59.9 °F 75% 29.96 in 10.0 mi SE 10.4 mph - N/A   Scattered Clouds
6:55 AM 66.2 °F - 62.1 °F 86% 29.95 in 7.0 mi SE 9.2 mph 23.0 mph N/A Rain Light Rain
7:15 AM 66.7 °F - 62.4 °F 86% 29.96 in 10.0 mi SE 11.5 mph - N/A   Scattered Clouds
7:35 AM 67.3 °F - 62.6 °F 85% 29.96 in 10.0 mi SE 12.7 mph - N/A   Scattered Clouds
7:55 AM 68.2 °F - 62.2 °F 81% 29.94 in 10.0 mi SE 13.8 mph - N/A   Clear
8:15 AM 68.4 °F - 62.1 °F 80% 29.96 in 10.0 mi SE 11.5 mph - N/A   Clear
8:35 AM 68.5 °F - 62.2 °F 80% 29.96 in 10.0 mi ESE 10.4 mph - N/A   Clear
8:55 AM 68.9 °F - 62.8 °F 81% 29.92 in 10.0 mi ESE 16.1 mph 21.9 mph N/A Thunderstorm Clear
9:15 AM 70.0 °F - 63.5 °F 80% 29.89 in 10.0 mi East 16.1 mph - N/A   Clear
9:35 AM 70.7 °F - 63.7 °F 78% 29.87 in 10.0 mi ESE 17.3 mph 25.3 mph N/A   Clear
9:55 AM 71.4 °F - 64.0 °F 77% 29.87 in 10.0 mi ESE 19.6 mph 27.6 mph N/A   Clear
10:15 AM 71.8 °F - 64.4 °F 77% 29.87 in 10.0 mi ESE 17.3 mph 28.8 mph N/A   Clear
10:35 AM 72.5 °F - 64.9 °F 77% 29.88 in 10.0 mi SE 13.8 mph 25.3 mph N/A   Clear
10:55 AM 73.4 °F - 65.5 °F 76% 29.90 in 10.0 mi SE 13.8 mph - N/A   Clear
11:15 AM 73.9 °F - 66.0 °F 76% 29.92 in 10.0 mi SE 13.8 mph - N/A   Clear
11:35 AM 75.0 °F - 66.4 °F 74% 29.90 in 10.0 mi SE 15.0 mph 20.7 mph N/A   Clear
11:55 AM 75.2 °F - 66.4 °F 74% 29.89 in 10.0 mi SE 18.4 mph 26.5 mph N/A   Clear
12:15 PM 75.7 °F - 67.1 °F 74% 29.90 in 10.0 mi SE 17.3 mph 24.2 mph N/A   Clear
12:35 PM 76.5 °F - 67.5 °F 74% 29.89 in 10.0 mi SE 18.4 mph 26.5 mph N/A   Clear
12:55 PM 78.4 °F - 68.5 °F 72% 29.87 in 10.0 mi SE 24.2 mph - N/A   Clear
1:15 PM 80.4 °F 83.4 °F 69.1 °F 68% 29.86 in 10.0 mi SE 21.9 mph 27.6 mph N/A   Clear
1:35 PM 81.1 °F 84.5 °F 69.8 °F 68% 29.85 in 10.0 mi SE 21.9 mph 29.9 mph N/A   Clear
1:55 PM 83.1 °F 87.3 °F 70.3 °F 65% 29.86 in 10.0 mi SE 18.4 mph 29.9 mph N/A   Clear
2:15 PM 85.3 °F 90.4 °F 70.9 °F 62% 29.85 in 10.0 mi SE 20.7 mph 27.6 mph N/A Thunderstorm Clear
2:35 PM 85.6 °F 91.1 °F 71.1 °F 62% 29.85 in 10.0 mi SE 18.4 mph 29.9 mph N/A   Clear
2:55 PM 86.7 °F 92.5 °F 71.4 °F 60% 29.84 in 10.0 mi SSE 19.6 mph 26.5 mph N/A   Clear
3:15 PM 88.7 °F 95.7 °F 72.1 °F 58% 29.84 in 10.0 mi SSE 16.1 mph 20.7 mph N/A   Clear
3:35 PM 88.5 °F 94.9 °F 71.8 °F 57% 29.82 in 10.0 mi SSE 20.7 mph 25.3 mph N/A   Clear
3:55 PM 89.1 °F 96.0 °F 72.0 °F 57% 29.82 in 10.0 mi SSE 17.3 mph 26.5 mph N/A   Clear
4:15 PM 90.0 °F 97.4 °F 72.3 °F 56% 29.82 in 10.0 mi SSE 15.0 mph 23.0 mph N/A   Clear
4:35 PM 90.3 °F 98.2 °F 72.5 °F 56% 29.81 in 10.0 mi SSE 16.1 mph 25.3 mph N/A   Clear
4:55 PM 90.3 °F 98.2 °F 72.5 °F 56% 29.81 in 10.0 mi SSE 15.0 mph - N/A   Clear
5:15 PM 89.6 °F 97.2 °F 72.7 °F 57% 29.81 in 10.0 mi SSE 15.0 mph 21.9 mph N/A   Clear
5:35 PM 90.7 °F 99.0 °F 72.9 °F 56% 29.79 in 10.0 mi SE 17.3 mph 20.7 mph N/A   Clear
5:55 PM 90.1 °F 98.9 °F 73.4 °F 58% 29.79 in 10.0 mi SE 15.0 mph 23.0 mph N/A   Clear
6:15 PM 89.1 °F 97.0 °F 73.0 °F 59% 29.78 in 10.0 mi SE 19.6 mph 24.2 mph N/A   Clear
6:35 PM 88.2 °F 96.0 °F 73.0 °F 61% 29.77 in 10.0 mi ESE 16.1 mph 21.9 mph N/A   Clear
6:55 PM 87.4 °F 94.4 °F 72.5 °F 61% 29.75 in 10.0 mi ESE 17.3 mph 25.3 mph N/A Thunderstorm Scattered Clouds
7:15 PM 86.9 °F 93.3 °F 72.0 °F 61% 29.77 in 10.0 mi ESE 18.4 mph 27.6 mph N/A   Scattered Clouds
7:35 PM 86.0 °F 91.8 °F 71.4 °F 62% 29.77 in 10.0 mi ESE 20.7 mph 33.4 mph N/A   Clear
7:55 PM 84.4 °F 88.7 °F 70.2 °F 62% 29.77 in 10.0 mi ESE 17.3 mph 26.5 mph N/A Thunderstorm Clear
8:15 PM 83.7 °F 87.7 °F 70.0 °F 63% 29.81 in 7.0 mi ESE 13.8 mph 25.3 mph 0.01 in Thunderstorm Thunderstorm
8:35 PM 74.1 °F - 72.9 °F 96% 29.87 in 2.5 mi NNW 11.5 mph 29.9 mph 0.40 in Rain , Thunderstorm Thunderstorms and Rain
8:55 PM 69.8 °F - 66.6 °F 89% 29.87 in 10.0 mi NNW 18.4 mph 32.2 mph 0.42 in Rain , Thunderstorm Light Thunderstorms and Rain
9:15 PM 71.2 °F - 64.9 °F 80% 29.87 in 10.0 mi NNE 4.6 mph 19.6 mph N/A Rain , Thunderstorm Light Thunderstorms and Rain
9:35 PM 70.3 °F - 66.6 °F 88% 29.90 in 10.0 mi East 6.9 mph - N/A Thunderstorm Clear
9:55 PM 70.5 °F - 66.6 °F 87% 29.91 in 10.0 mi ESE 11.5 mph - N/A   Clear
10:15 PM 69.8 °F - 66.2 °F 88% 29.91 in 10.0 mi NW 3.5 mph - N/A Rain Light Rain
10:35 PM 71.1 °F - 65.8 °F 84% 29.90 in 10.0 mi NW 11.5 mph - 0.01 in Rain Rain
10:55 PM 70.3 °F - 66.2 °F 87% 29.83 in 10.0 mi East 10.4 mph 19.6 mph 0.01 in Rain Light Rain
11:15 PM 70.2 °F - 66.0 °F 87% 29.81 in 10.0 mi East 5.8 mph - N/A   Clear
11:35 PM 70.0 °F - 66.4 °F 88% 29.80 in 10.0 mi Calm Calm - N/A   Clear
11:55 PM 70.9 °F - 64.8 °F 81% 29.82 in 10.0 mi SSE 15.0 mph 20.7 mph N/A   Clear